Weather History for Mackinac Island, MI

Change the Weather History Date:

Monday, October 17, 2011

  Actual Average Record
Temperature  
Mean Temperature 46 °F -  
Max Temperature 50 °F 50 °F 73 °F (1998)
Min Temperature 42 °F 40 °F 27 °F (1977)
Degree Days  
Heating Degree Days 19    
Moisture  
Dew Point 35 °F    
Average Humidity 68    
Maximum Humidity 93    
Minimum Humidity 53    
Precipitation  
Precipitation 0.06 in - - ()
Sea Level Pressure  
Sea Level Pressure 29.49 in    
Wind  
Wind Speed 17 mph (WNW)    
Max Wind Speed 24 mph    
Max Gust Speed 41 mph    
Visibility 9 miles    
Events Rain    
Averages and records for this station are not official NWS values.
T = Trace of Precipitation, MM = Missing Value Source: NWS Daily Summary

Daily Weather History Graph

Daily Weather History Graph

Search for Another Location

Airport:

Trip Planner

Search our weather history database for the weather conditions in past years. The results will help you decide how hot, cold, wet, or windy it might be!

Date:

Astronomy

Oct. 17, 2011 Rise Set
Actual Time 7:57 AM EDT 6:49 PM EDT
Civil Twilight 7:27 AM EDT 7:19 PM EDT
Nautical Twilight 6:52 AM EDT 7:54 PM EDT
Astronomical Twilight 6:18 AM EDT 8:28 PM EDT
Moon 10:16 PM EDT (10/17) 1:16 PM EDT (10/17)
Length of Visible Light 11h 52m
Length of Day
10h 51m
Waning Gibbous, 74% of the Moon is Illuminated
Oct 17
Waning Gibbous
Oct 19
Last Quarter
Oct 26
New
Nov 2
First Quarter
Nov 10
Full

Hourly Weather History & Observations

Time (EDT) Temp. Windchill Dew Point Humidity Pressure Visibility Wind Dir Wind Speed Gust Speed Precip Events Conditions
12:15 AM 44.6 °F 37.4 °F 30.2 °F 57% 29.49 in 10.0 mi WNW 16.1 mph 27.6 mph N/A   Mostly Cloudy
12:34 AM 44.6 °F 36.9 °F 30.2 °F 57% 29.49 in 10.0 mi WNW 18.4 mph 32.2 mph N/A   Mostly Cloudy
12:54 AM 44.6 °F 36.9 °F 30.2 °F 57% 29.48 in 10.0 mi West 18.4 mph 31.1 mph N/A   Scattered Clouds
1:15 AM 46.4 °F 39.8 °F 30.2 °F 53% 29.47 in 10.0 mi West 16.1 mph 31.1 mph N/A   Clear
1:34 AM 46.4 °F 39.8 °F 30.2 °F 53% 29.47 in 10.0 mi West 16.1 mph 32.2 mph N/A   Clear
2:14 AM 46.4 °F 38.7 °F 30.2 °F 53% 29.45 in 10.0 mi WNW 20.7 mph 35.7 mph N/A   Clear
2:35 AM 46.4 °F 39.2 °F 32.0 °F 57% 29.45 in 10.0 mi West 18.4 mph 34.5 mph N/A   Scattered Clouds
2:54 AM 46.4 °F 39.0 °F 32.0 °F 57% 29.45 in 10.0 mi West 19.6 mph 35.7 mph N/A   Scattered Clouds
3:34 AM 46.4 °F 39.2 °F 32.0 °F 57% 29.45 in 10.0 mi West 18.4 mph 32.2 mph N/A   Overcast
4:14 AM 46.4 °F 39.0 °F 32.0 °F 57% 29.45 in 10.0 mi West 19.6 mph 35.7 mph N/A   Overcast
4:34 AM 46.4 °F 38.7 °F 32.0 °F 57% 29.44 in 10.0 mi West 20.7 mph 38.0 mph N/A   Overcast
4:55 AM 46.4 °F 40.1 °F 32.0 °F 57% 29.44 in 10.0 mi West 15.0 mph 40.3 mph N/A   Overcast
5:14 AM 46.4 °F 39.5 °F 33.8 °F 62% 29.44 in 10.0 mi West 17.3 mph 38.0 mph N/A   Overcast
5:54 AM 46.4 °F 39.0 °F 33.8 °F 62% 29.44 in 10.0 mi WNW 19.6 mph 33.4 mph N/A   Overcast
6:14 AM 46.4 °F 39.2 °F 33.8 °F 62% 29.43 in 10.0 mi West 18.4 mph 32.2 mph N/A   Overcast
6:34 AM 46.4 °F 39.5 °F 32.0 °F 57% 29.44 in 10.0 mi West 17.3 mph 32.2 mph N/A   Overcast
6:54 AM 46.4 °F 38.1 °F 32.0 °F 57% 29.44 in 10.0 mi West 24.2 mph 35.7 mph N/A   Overcast
7:14 AM 46.4 °F 39.5 °F 32.0 °F 57% 29.43 in 10.0 mi West 17.3 mph 41.4 mph N/A   Overcast
7:34 AM 46.4 °F 39.2 °F 32.0 °F 57% 29.43 in 10.0 mi West 18.4 mph 32.2 mph N/A   Overcast
7:55 AM 46.4 °F 39.0 °F 32.0 °F 57% 29.44 in 10.0 mi West 19.6 mph 34.5 mph N/A   Overcast
8:14 AM 46.4 °F 38.5 °F 32.0 °F 57% 29.44 in 10.0 mi West 21.9 mph 33.4 mph N/A   Overcast
8:35 AM 46.4 °F 38.7 °F 32.0 °F 57% 29.44 in 10.0 mi West 20.7 mph 35.7 mph N/A   Overcast
8:54 AM 46.4 °F 40.1 °F 32.0 °F 57% 29.45 in 10.0 mi West 15.0 mph 29.9 mph N/A   Overcast
9:14 AM 46.4 °F 39.5 °F 32.0 °F 57% 29.45 in 10.0 mi West 17.3 mph 28.8 mph N/A   Overcast
9:34 AM 46.4 °F 39.2 °F 32.0 °F 57% 29.45 in 10.0 mi West 18.4 mph 33.4 mph N/A   Overcast
9:54 AM 46.4 °F 39.0 °F 33.8 °F 62% 29.45 in 10.0 mi West 19.6 mph 28.8 mph N/A   Overcast
10:14 AM 46.4 °F 39.0 °F 33.8 °F 62% 29.46 in 10.0 mi WNW 19.6 mph 33.4 mph N/A   Overcast
10:34 AM 46.4 °F 38.5 °F 33.8 °F 62% 29.47 in 10.0 mi WNW 21.9 mph 32.2 mph N/A   Overcast
11:15 AM 46.4 °F 40.1 °F 33.8 °F 62% 29.48 in 10.0 mi West 15.0 mph 29.9 mph N/A   Overcast
11:34 AM 46.4 °F 39.8 °F 33.8 °F 62% 29.48 in 10.0 mi West 16.1 mph 26.5 mph N/A   Overcast
11:54 AM 46.4 °F 39.2 °F 33.8 °F 62% 29.49 in 7.0 mi West 18.4 mph 29.9 mph N/A   Overcast
12:15 PM 46.4 °F 39.5 °F 33.8 °F 62% 29.49 in 7.0 mi WNW 17.3 mph 29.9 mph N/A   Overcast
12:34 PM 46.4 °F 39.2 °F 33.8 °F 62% 29.49 in 7.0 mi WNW 18.4 mph 28.8 mph N/A   Overcast
12:54 PM 46.4 °F 39.8 °F 35.6 °F 66% 29.49 in 5.0 mi West 16.1 mph 23.0 mph N/A   Haze
1:15 PM 46.4 °F 40.1 °F 35.6 °F 66% 29.50 in 4.0 mi West 15.0 mph 26.5 mph N/A   Haze
1:34 PM 46.4 °F 38.7 °F 35.6 °F 66% 29.50 in 5.0 mi West 20.7 mph 29.9 mph N/A   Haze
1:54 PM 50.0 °F - 35.6 °F 58% 29.49 in 10.0 mi West 16.1 mph 27.6 mph N/A   Overcast
2:15 PM 48.2 °F - 35.6 °F 62% 29.50 in 7.0 mi West 16.1 mph 28.8 mph N/A   Overcast
3:14 PM 46.4 °F 39.8 °F 37.4 °F 71% 29.51 in 10.0 mi WNW 16.1 mph 29.9 mph N/A Rain Light Rain
3:34 PM 44.6 °F 40.2 °F 39.2 °F 81% 29.52 in 5.0 mi WNW 8.1 mph 32.2 mph N/A Rain Light Rain
3:54 PM 42.8 °F 35.8 °F 39.2 °F 87% 29.53 in 4.0 mi WNW 13.8 mph 27.6 mph N/A Rain Light Rain
3:59 PM 42.8 °F 36.2 °F 39.2 °F 87% 29.54 in 5.0 mi WNW 12.7 mph 27.6 mph 0.01 in Rain Light Rain
4:14 PM 44.6 °F 38.8 °F 41.0 °F 87% 29.54 in 10.0 mi WNW 11.5 mph 21.9 mph N/A Rain Light Rain
4:34 PM 44.6 °F 39.7 °F 41.0 °F 87% 29.55 in 10.0 mi WNW 9.2 mph 16.1 mph 0.01 in   Overcast
4:54 PM 44.6 °F 39.2 °F 39.2 °F 81% 29.55 in 10.0 mi WNW 10.4 mph 16.1 mph 0.01 in Rain Light Rain
4:59 PM 44.6 °F 39.7 °F 39.2 °F 81% 29.55 in 10.0 mi WNW 9.2 mph 19.6 mph 0.01 in Rain Light Rain
5:14 PM 44.6 °F 39.2 °F 39.2 °F 81% 29.56 in 10.0 mi WNW 10.4 mph - N/A Rain Light Rain
5:34 PM 42.8 °F 37.0 °F 41.0 °F 93% 29.57 in 10.0 mi WNW 10.4 mph - N/A Rain Light Rain
5:54 PM 42.8 °F 37.0 °F 41.0 °F 93% 29.58 in 10.0 mi WNW 10.4 mph - 0.01 in Rain Light Rain
5:59 PM 42.8 °F 36.2 °F 41.0 °F 93% 29.58 in 10.0 mi WNW 12.7 mph - 0.01 in Rain Light Rain
6:14 PM 42.8 °F 37.0 °F 41.0 °F 93% 29.59 in 7.0 mi WNW 10.4 mph 16.1 mph 0.01 in   Unknown
6:34 PM 42.8 °F 37.5 °F 41.0 °F 93% 29.59 in 10.0 mi WNW 9.2 mph - 0.01 in Rain Light Rain
6:54 PM 42.8 °F 36.6 °F 41.0 °F 93% 29.60 in 5.0 mi NW 11.5 mph 17.3 mph 0.01 in Rain Light Rain
6:59 PM 42.8 °F 36.6 °F 41.0 °F 93% 29.60 in 5.0 mi WNW 11.5 mph 23.0 mph 0.01 in Rain Light Rain
7:14 PM 42.8 °F 37.0 °F 41.0 °F 93% 29.60 in 10.0 mi WNW 10.4 mph 18.4 mph 0.01 in Rain Light Rain
7:34 PM 42.8 °F 36.2 °F 41.0 °F 93% 29.60 in 7.0 mi WNW 12.7 mph 18.4 mph 0.02 in Rain Light Rain
7:54 PM 42.8 °F 37.0 °F 41.0 °F 93% 29.61 in 10.0 mi NW 10.4 mph 16.1 mph 0.02 in   Overcast
7:59 PM 42.8 °F 35.8 °F 41.0 °F 93% 29.61 in 7.0 mi WNW 13.8 mph 20.7 mph 0.02 in Rain Light Rain
8:14 PM 42.8 °F 36.2 °F 41.0 °F 93% 29.62 in 10.0 mi WNW 12.7 mph 20.7 mph 0.01 in   Overcast
8:32 PM 42.8 °F 37.0 °F 41.0 °F 93% 29.62 in 10.0 mi NW 10.4 mph - 0.02 in Rain Light Rain
8:59 PM 42.8 °F 35.4 °F 41.0 °F 93% 29.63 in 10.0 mi WNW 15.0 mph 20.7 mph 0.02 in   Overcast
9:14 PM 42.8 °F 35.4 °F 41.0 °F 93% 29.63 in 10.0 mi WNW 15.0 mph 20.7 mph N/A Rain Light Rain
9:34 PM 42.8 °F 36.6 °F 41.0 °F 93% 29.63 in 10.0 mi WNW 11.5 mph 19.6 mph 0.02 in   Overcast
9:54 PM 42.8 °F 35.8 °F 39.2 °F 87% 29.63 in 10.0 mi WNW 13.8 mph 21.9 mph 0.02 in   Overcast
9:59 PM 42.8 °F 36.6 °F 39.2 °F 87% 29.64 in 10.0 mi WNW 11.5 mph 25.3 mph 0.02 in   Overcast
10:14 PM 42.8 °F 37.0 °F 41.0 °F 93% 29.64 in 10.0 mi WNW 10.4 mph 23.0 mph N/A   Overcast
10:34 PM 42.8 °F 37.0 °F 41.0 °F 93% 29.64 in 10.0 mi WNW 10.4 mph 18.4 mph N/A   Overcast
10:58 PM 42.8 °F 35.8 °F 39.2 °F 87% 29.65 in 10.0 mi WNW 13.8 mph 21.9 mph 0.01 in   Overcast
11:14 PM 42.8 °F 35.8 °F 39.2 °F 87% 29.65 in 10.0 mi WNW 13.8 mph 20.7 mph N/A   Overcast
11:34 PM 42.8 °F 36.6 °F 39.2 °F 87% 29.65 in 10.0 mi WNW 11.5 mph 19.6 mph N/A   Mostly Cloudy
11:54 PM 42.8 °F 38.0 °F 39.2 °F 87% 29.64 in 10.0 mi NW 8.1 mph 21.9 mph N/A   Scattered Clouds